Regional Weather Roundup
Issued by NWS

Home | Current Version | Previous Version | Text Only | Print | Product List | Glossary On
Versions: 1 2 3 4 5 6 7 8 9 10 11 12 13 14 15 16 17 18 19 20 21 22 23 24 25 26 27 28 29 30 31 32 33 34 35 36 37 38 39 40 41 42 43 44 45 46 47 48 49 50
000
ASHW40 PHFO 201312
RWRHI

WEATHER ROUNDUP FOR HAWAII
NATIONAL WEATHER SERVICE HONOLULU HI
300 AM HST THU JUL 20 2017

THIS IS AN AUTOMATED REPORT THAT HAS NOT BEEN QUALITY CONTROLLED.

NOTE..."FAIR" INDICATES FEW OR NO CLOUDS BELOW 12,000 FEET WITH NO
SIGNIFICANT WEATHER AND/OR OBSTRUCTIONS TO VISIBILITY.

* - THESE SITES REPORT LIMITED FIELDS
# - BUOY DATA PROVIDED BY PACIFIC ISLANDS OCEAN OBSERVING SYSTEM.

HIZ001>004-201400-
KAUAI-NIIHAU-

CITY           SKY/WX    TMP DP  RH WIND       PRES   REMARKS
LIHUE APT      MOCLDY    80  73  79 NE16      30.09S
PORT ALLEN*      N/A     77 N/A N/A NE15        N/A
POIPU*           N/A     77 N/A N/A NE9G21      N/A
PRINCEVILLE*     N/A     77 N/A N/A E7          N/A
KOKOLE POINT*  NOT AVBL
MOLOAA DAIRY*    N/A     77  70  78 E5G13       N/A
WAIMEA HTS*    NOT AVBL
PUU OPAE*      NOT AVBL
PUU LUA*       NOT AVBL
MAKAHA RIDGE*  NOT AVBL
$$

HIZ005>011-201400-
OAHU-

CITY           SKY/WX    TMP DP  RH WIND       PRES   REMARKS
HONOLULU       LGT RAIN  77  70  79 N7        30.05S
KALAELOA       LGT RAIN  75  70  84 NE7       30.06S
KANEOHE MCB    NOT AVBL
WHEELER FIELD  MOCLDY    73  70  88 E6        30.06S
BELLOWS*       NOT AVBL
KAHUKU*        NOT AVBL
WHEELER*       NOT AVBL
WAIANAE HARBOR NOT AVBL
DILLINGHAM*      N/A     90  84  84 NW1         N/A  HX 115
KAHUKU TRN*      N/A     88  84  89 W7G17       N/A  HX 112
KAWAILOA*        N/A     72  68  88 E10G18      N/A
KII*             N/A     79  72  78 CALM        N/A
MAKUA RANGE*     N/A     79  66  65 W10G17      N/A
OAHU FOREST NW NOT AVBL
SCHOFIELD BRK*   N/A     73  70  88 E1          N/A
SCHOFIELD S*   NOT AVBL
WAIANAE VLY*   NOT AVBL
KUAOKALA*      NOT AVBL
HONOULIUULI*   NOT AVBL
MOKUOLOE IS*   NOT AVBL
PALEHUA*       NOT AVBL
WAIAWA PHB*    NOT AVBL
$$

HIZ012>013-201400-
MOLOKAI-

CITY           SKY/WX    TMP DP  RH WIND       PRES   REMARKS
MOLOKAI AIRPT  CLEAR     80  70  71 NE9       30.05F
KALAUPAPA      NOT AVBL
MAKAPULAPAI*   NOT AVBL
MOLOKAI 1*     NOT AVBL
PUU ALII*      NOT AVBL
$$

HIZ016-201400-
KAHOOLAWE-

CITY           SKY/WX    TMP DP  RH WIND       PRES   REMARKS
KAHOOLAWE*     NOT AVBL
HAKIOAWA*      NOT AVBL
HONOKANAIA*      N/A     77  68  72 NE13G32   29.98F
KANELOA*         N/A     75  70  83 E18G35    30.11F
KEALIALALO*    NOT AVBL
LUA MAKIKA*    NOT AVBL
$$

HIZ014>015-201400-
LANAI-

CITY           SKY/WX    TMP DP  RH WIND       PRES   REMARKS
LANAI CITY     FAIR      69  66  90 NE6       30.10S
LANAI 1*       NOT AVBL
$$

HIZ017>028-201400-
MAUI-

CITY           SKY/WX    TMP DP  RH WIND       PRES   REMARKS
KAHULUI        CLOUDY    77  67  71 NE16      30.03F
KAPALUA-W MAUI NOT AVBL
HANA AIRPORT     N/A     73  72  94 SE1       30.09S
HANA*            N/A     73 N/A N/A SE3         N/A
HALEAKALA SUMM   N/A     45  45 100 NE18        N/A
MAALAEA BAY*   NOT AVBL
HALEAKALA*     NOT AVBL
KAUPO GAP*     NOT AVBL
KULA 1*          N/A     51  51  99 NE5         N/A
$$

HIZ023>026-201400-
BIG ISLAND OF HAWAII COAST AND LOWER SLOPES-

CITY           SKY/WX    TMP DP  RH WIND       PRES   REMARKS
KAILUA KONA    CLOUDY    75  71  87 SE10      29.99F
HILO           HVY RAIN  72  67  84 CALM      30.07F
HONOKAA*         N/A     72 N/A N/A VRB1        N/A
KAWAIHAE MWT*    N/A     81 N/A N/A N3G12       N/A
KAWAIHAE*      NOT AVBL
SOUTH POINT*     N/A     70 N/A N/A N17G28      N/A
UPOLU AIRPORT* NOT AVBL
KAMUELA*       NOT AVBL
HAKALAU*         N/A     52  52  99 SE2         N/A
KALOKO-HONOKO* NOT AVBL
PALI 2*          N/A     64  61  88 S13G18      N/A
KEALAKOMO*       N/A     77  66  69 N12G17      N/A
KAUPULEHU*     NOT AVBL
KAPAPALA*        N/A     67  67  99 N5          N/A
LOWER KAHUKU*  NOT AVBL
PUHE CS*       NOT AVBL
PUHO CS*       NOT AVBL
PTA KEAMUKU*   NOT AVBL
WAIKOLOA*      NOT AVBL
$$

HIZ027>028-201400-
BIG ISLAND OF HAWAII INTERIOR AND SUMMMITS-

CITY           SKY/WX    TMP DP  RH WIND       PRES   REMARKS
BRADSHAW FIELD CLOUDY    50  44  78 CALM      30.36S
MK VISITOR CEN   N/A     45  25  45 N2          N/A
MAUNA KEA*       N/A     41  -9  11 CALM        N/A
MAUNA LOA*       N/A     41   0  17 MISG        N/A
MAUNA LOA 1*   NOT AVBL
PTA KIPUKA*      N/A     54  52  94 SW3G9       N/A
PTA RANGE 17*    N/A     70  63  78 E15G24      N/A
PTA WEST*        N/A     59  50  72 SE15G22     N/A
NENE CABIN*    NOT AVBL
AHUMOA*        NOT AVBL
PTA PORTABLE*  NOT AVBL
PUU MALI*        N/A     54  48  82 S3          N/A
$$

HIC003-201400-
NORTHWEST ISLANDS-

CITY           SKY/WX    TMP DP  RH WIND       PRES   REMARKS
MIDWAY ISLAND  PTCLDY    77  73  88 E23       30.08F
MIDWAY NOS*    NOT AVBL
FRENCH FRIGATE NOT AVBL
$$

PHZ110>124-180-201400-
BUOY REPORTS

STATION/POSITION TIME  TEMP    WIND        PRES    WAVE   SWELL
                       AIR SEA DIR/SP/G            HT/PER HT/DIR
                 (UTC) (F)     (DEG/KT/KT) (MB)    (FT/S) (FT/D)
BUOY 51001       1250   80 81   80/ 17/ 21 1019.4F   7/ 7   3/120
BUOY 51101       1250   80 81   90/ 17/ 21 1019.6F   7/ 7   3/170
BUOY 51100       NOT AVBL
BUOY 51002       1250   79 80   90/ 14/ 17 1015.1F   6/ 7   3/100
BUOY 51003       1250   80 81   40/ 12/ 14 1015.9F   5/ 7   5/ 90
BUOY 51004       1150      79   60/ 19/ 23 1016.2    7/ 8   3/120
WAIMEA BAY#      1232      78                N/A     5/ 8
MOKAPU POINT#    1234      80                N/A     7/ 8   2/ 90
LANAI#           NOT AVBL
BARBERS PT 2#    NOT AVBL
PAUWELA#         1239      79                N/A     6/ 8   2/ 90
HILO#            1257      80                N/A     7/ 8   3/110
KANEOHE BAY#     1255      79                N/A     6/ 8
KANEOHE BAY 2#   NOT AVBL
HANALEI#         1252      80                N/A     6/ 7   2/100
KAHULUI HARBOR   1248   78 80   30/ 15/ 17 1017.2F
HONOLULU HARBOR  1248   77 81   60/  3/  4 1018.3S
PEARL HARBOR#    1230      81                N/A     3/13   2/160
KILO NALU        NOT AVBL
HILO HARBOR      1248   74 79   90/  3/  4 1017.9F
MOKUOLOE         1236   79 82   80/ 15/ 18 1017.9F
NAWILIWILI       1248   78      50/ 12/ 15 1018.3F
WHOTS BUOY       NOT AVBL
BUOY 51028       NOT AVBL
$$

......................KEY........................................
  SKY/WX - SKY CONDITIONS/PRESENT WEATHER
  TMP    - TEMPERATURE IN FAHRENHEIT
  DWPT   - DEWPOINT IN FAHRENHEIT
  RH     - RELATIVE HUMIDITY IN PERCENT
  WIND   - DIRECTION AND SPEED /MPH FOR ISLANDS...KTS FOR BUOYS/
  PRES   - MEAN SEA LEVEL PRESSURE IN INCHES OF HG
  VSB    - VISIBILITY IN MILES
  HX     - HEAT INDEX
  WCI    - WIND CHILL INDEX
  VRB    - VARIABLE WIND DIRECTION
  N/A    - NOT AVAILABLE




USA.gov is the U.S. government's official web portal to all federal, state and local government web resources and services.